Regional Weather Roundup
Issued by NWS

Home | Current Version | Previous Version | Text Only | Print | Product List | Glossary Off
Versions: 1 2 3 4 5 6 7 8 9 10 11 12 13 14 15 16 17 18 19 20 21 22 23 24 25 26 27 28 29 30 31 32 33 34 35 36 37 38 39 40 41 42 43 44 45 46 47 48 49 50

000
ASUS43 KMKX 221500
RWRWI

WISCONSIN REGIONAL WEATHER ROUNDUP
NATIONAL WEATHER SERVICE MILWAUKEE/SULLIVAN WI
900 AM CST SAT NOV 22 2014

NOTE: "FAIR" INDICATES FEW OR NO CLOUDS BELOW 12,000 FEET WITH NO
SIGNIFICANT WEATHER AND/OR OBSTRUCTIONS TO VISIBILITY.

WIZ001-002-006>008-014>016-023>028-221600-
NORTHWEST WISCONSIN

CITY           SKY/WX    TMP DP  RH WIND       PRES   REMARKS
SUPERIOR ARPT  MOSUNNY   30  28  92 SW5       29.72S FOG     WCI  25
ASHLAND        CLOUDY    36  31  82 SW9       29.73S HAZE    WCI  29
HAYWARD        CLOUDY    35  31  85 SW8       29.74S FOG     WCI  29
SIREN          CLOUDY    36  32  87 SW9       29.75S FOG     WCI  29
CUMBERLAND     CLOUDY    32  32 100 SW12      29.75S FOG     WCI  23
RICE LAKE      CLOUDY    35  32  90 S8        29.78S FOG     WCI  28
CHETEK         CLOUDY    34  33  94 S8        29.77F FOG     WCI  27
LADYSMITH      CLOUDY    34  33  96 S9        29.78F FOG     WCI  26
EAU CLAIRE     NOT AVBL
MENOMONIE      CLOUDY    36  34  93 S9        29.79F FOG     WCI  29
NEW RICHMOND   CLOUDY    35  34  97 SW10      29.77S FOG     WCI  27
OSCEOLA        CLOUDY    36  35  98 SW6       29.79F FOG     WCI  31
$$

WIZ003>005-009-010-017-018-221600-
NORTH CENTRAL WISCONSIN

CITY           SKY/WX    TMP DP  RH WIND       PRES   REMARKS
MANITOWISH WTR CLOUDY    31  31 100 SW12G17   29.72S FOG     WCI  22
ARBOR VITAE    CLOUDY    33  32  95 SW9G16    29.73F FOG     WCI  25
WOODRUFF       CLOUDY    33  32  95 SW9G16    29.73F FOG     WCI  25
RHINELANDER    FOG       30  30 100 SW10G21   29.76S VSB 1/2 WCI  21
EAGLE RIVER    CLOUDY    31  31  99 SW10G20   29.73F FOG     WCI  22
LAND O LAKES   CLOUDY    32  31  94 SW7       29.73S FOG     WCI  26
PHILLIPS       CLOUDY    32  31  98 SW10G16   29.75S FOG     WCI  23
TOMAHAWK       FOG       31  30  96 CALM      29.78S VSB 3/4
MEDFORD        FOG       32  31  98 SW9       29.79F VSB 1/2 WCI  24
MERRILL        FOG       32  32 100 SW9       29.80S VSB 1   WCI  24
$$

WIZ029-030-035-036-043>047-221600-
CENTRAL WISCONSIN

CITY           SKY/WX    TMP DP  RH WIND       PRES   REMARKS
WAUSAU         FOG       32  31  96 SW6       29.80F VSB 1   WCI  26
MOSINEE        FOG       32  32 100 SW9       29.83F VSB 1/2 WCI  24
MARSHFIELD     FOG       34  33  96 SW8       29.81F VSB 1/2 WCI  27
STEVENS POINT  FOG       31  30  98 S7        29.85S VSB 3/4 WCI  24
WAUPACA        CLOUDY    36  32  86 SW7       29.87F FOG     WCI  30
WAUTOMA        CLOUDY    36  34  93 SW8       29.87F FOG     WCI  29
WISC RAPIDS    FOG       33  31  92 S7        29.86F VSB 1/2 WCI  27
CAMP DOUGLAS   NOT AVBL
$$

WIZ011>013-019>022-031-037>040-048>050-221600-
NORTHEAST WISCONSIN

CITY           SKY/WX    TMP DP  RH WIND       PRES   REMARKS
ANTIGO         FOG       31  31 100 SW13      29.80F VSB 1/2 WCI  21
SHAWANO        CLOUDY    35  31  85 SW7       29.86S WCI  29
OCONTO         CLOUDY    33  31  91 SW10G17   29.86S WCI  25
STURGEON BAY   CLOUDY    34  28  80 SW13      29.87S WCI  25
GREEN BAY      CLOUDY    35  32  88 SW12      29.87F FOG     WCI  27
MANITOWOC      NOT AVBL
APPLETON         N/A     34  34 100 SW9       29.87F FOG     WCI  26
CLINTONVILLE   CLOUDY    34  32  93 SW9       29.86F FOG     WCI  26
OSHKOSH        CLOUDY    35  32  88 SW10      29.88F FOG     WCI  27
$$

WIZ032>034-041-042-053>061-221600-
SOUTHWEST WISCONSIN

CITY           SKY/WX    TMP DP  RH WIND       PRES   REMARKS
LA CROSSE      CLOUDY    36  34  92 S8        29.84F FOG     WCI  30
SPARTA         CLOUDY    35  35  99 SW6       29.86F FOG     WCI  30
VIROQUA        CLOUDY   N/A N/A N/A S9        29.84F VSB<1/4
BOSCOBEL       CLOUDY    37  35  92 S8        29.90F FOG     WCI  31
PRAIRIE DU CHI CLOUDY    36  34  92 CALM      29.89F FOG
PLATTEVILLE    CLOUDY    35  34  96 S10       29.92F VSB<1/4 WCI  27
$$

WIZ056-057-062-063-064-067-068-221600-
SOUTH CENTRAL WISCONSIN

CITY           SKY/WX    TMP DP  RH WIND       PRES   REMARKS
REEDSBURG      FOG       33  33  99 S8        29.88F VSB 1   WCI  26
BARABOO/DELLS  CLOUDY    34  33  96 SW6       29.87F FOG     WCI  29
LONE ROCK      CLOUDY    40  34  79 SW3       29.91F HAZE
MINERAL POINT  SNOW      36  34  93 S9        29.90F VSB<1/4 WCI  29
MADISON        FOG       35  34  96 S13       29.92F VSB 1/2 WCI  26
MIDDLETON      CLOUDY    37  37  99 S10G17    29.91F VSB 3/4 WCI  30
WATERTOWN      FOG       34  34 100 S8G16     29.92F VSB 3/4 WCI  27
MONROE         FOG       34  34 100 S13       29.93S VSB<1/4 WCI  25
JANESVILLE     FOG       36  36 100 S7        29.95F VSB 1/2 WCI  30
$$

WIZ051-052-058>065-066-070>072-221600-
SOUTHEAST WISCONSIN

CITY           SKY/WX    TMP DP  RH WIND       PRES   REMARKS
MILWAUKEE      FOG       36  34  92 SW12      29.96F VSB 1   WCI  28
WAUKESHA       FOG       34  34 100 SW9       29.95F VSB 3/4 WCI  26
MILWAUKEE/TIMM FOG       36  34  93 SW10      29.95F VSB 1   WCI  28
RACINE         CLOUDY    38  36  92 SW9       29.98F FOG     WCI  31
BURLINGTON     FOG       34  33  99 SW12      29.96F VSB 1   WCI  25
KENOSHA        CLOUDY    38  37  97 SW8       29.97F FOG     WCI  32
FOND DU LAC    CLOUDY    35  33  92 S15       29.89F FOG     WCI  25
SHEBOYGAN      CLOUDY    37  33  85 SW13      29.90F FOG     WCI  29
WEST BEND      CLOUDY    36  32  87 SW13      29.92F FOG     WCI  27
JUNEAU         FOG       33  33  99 S13       29.93S VSB 1/4 WCI  24
$$

LSZ147-162-221600-
LAKE SUPERIOR

STATION/POSITION TIME  TEMP    WIND        PRES    WAVE
                       AIR SEA DIR/SP/G            HT/PER
                 (UTC) (F)     (DEG/KT/KT) (MB)    (FT/S)
DEVILS ISLAND    1400   35     240/ 20/ 24 1006.3F
PORT WING        1400   33     180/  4/  5 1006.4
SAXON HARBOR     1400   36     200/  7/ 13 1007.1
$$

LMZ867-665-643>646-221600-
LAKE MICHIGAN

STATION/POSITION TIME  TEMP    WIND        PRES    WAVE
                       AIR SEA DIR/SP/G            HT/PER
                 (UTC) (F)     (DEG/KT/KT) (MB)    (FT/S)
CHAMBERS ISLAND  1400   34     190/  8/ 21 1010.8F
N MID LAKE BUOY  1350   37 42  230/ 23/ 29 1011.5R  11/ 9
NORTHPORT PIER   1417   34     190/  5/ 12 1010.8F
SISTER BAY       1413          240/ 16/ 19   N/A
ALGOMA LAKESHORE 1413          240/ 11/ 14   N/A
KEWAUNEE LAKESHO 1400   35     220/  8/ 10 1011.5F
SHEBOYGAN LAKESH 1400   36 36  210/ 15/ 16 1014.1F
PORT WASHINGTON  1440   38     210/  6/ 18 1014.2F
ATWATER BUOY     1400   36      40/  2/  4 1015.8F
MILWAUKEE LAKESH 1400   36     230/ 13/ 15   N/A
S MID LAKE BUOY  1350   40 43  210/ 21/ 25 1016.5F   6/ 7
KENOSHA   LAKESH 1400   37     210/  8/ 13 1015.6S
$$

TC  - TEMPERATURE IN CELSIUS
VSB - VISIBILITY IN STATUTE MILES
WCI - WIND CHILL INDEX
HX  - HEAT INDEX




USA.gov is the U.S. government's official web portal to all federal, state and local government web resources and services.